Tracking 22454 objects as of 5-Mar-2021
HD Live streaming from Space Station
objects crossing your sky now

BREEZE-KM R/B

Track BREEZE-KM R/B now!
10-day predictions


NORAD ID: 41580
Int'l Code: 2016-034B
Perigee: 663.4 km
Apogee: 967.7 km
Inclination: 99.1 °
Period: 101.1 minutes
Semi major axis: 7186 km
RCS: Unknown
Launch date: June 4, 2016
Source: Commonwealth of Independent States (former USSR) (CIS)
Launch site: PLESETSK MISSILE AND SPACE COMPLEX (PKMTR)

Note: This is a ROCKET BODY
aabbcc
Your satellite tracking list
Your tracking list is empty




NASA's NSSDC Master Catalog

Two Line Element Set (TLE):
1 41580U 16034B   21063.81925701 -.00000012  00000-0  14470-4 0  9991
2 41580  99.0897 172.6569 0211729 324.4538  34.2688 14.25031123246981
Source of the keplerian elements: AFSPC